GFSNIL_sfc_temp_021.txt.gz
Temp
80 80 78 76 78 71 76 73 77 76 75 76 76 76 76 73 73 74 72 72 72 72
79 79 77 76 77 75 75 77 78 76 76 76 77 76 74 72 72 73 73 73 72 72
79 78 78 77 77 73 76 79 77 76 75 75 75 74 72 69 71 71 70 72 70 72
78 78 79 76 76 74 75 77 77 78 77 76 75 72 70 71 71 67 64 65 64 68
79 77 76 73 74 78 76 78 79 79 78 74 72 72 72 69 71 67 65 62 65 66
78 75 74 73 73 79 79 79 80 80 79 75 72 70 70 69 69 69 69 63 62 62
75 75 75 73 74 77 80 79 79 80 75 76 75 71 70 70 68 69 70 69 66 64
77 76 77 73 74 74 76 76 80 75 75 77 76 73 70 72 72 69 69 67 66 68
81 80 75 75 74 73 75 75 76 74 75 76 76 53 55 59 72 71 68 67 66 66
81 80 79 80 78 78 72 73 74 75 75 74 70 53 53 53 69 70 69 68 66 69
82 81 78 79 78 77 74 74 74 74 74 73 68 49 48 50 72 71 70 71 71 70
84 81 77 76 75 74 72 72 71 72 71 73 68 48 47 55 73 69 68 69 71 70
85 82 76 76 75 75 74 73 73 71 71 63 68 48 46 59 69 65 69 68 65 53
84 82 80 78 76 75 75 73 73 71 71 72 68 60 48 49 68 69 69 71 71 68

GFSNIL_sfc_temp_024.txt.gz
Temp
76 74 75 74 71 70 70 70 71 72 72 72 72 71 70 68 67 68 66 66 66 65
76 73 72 74 74 72 72 71 72 72 72 73 72 71 69 67 67 69 67 65 66 65
73 76 74 74 70 71 72 70 72 72 72 71 71 70 67 67 68 68 66 66 65 64
74 76 70 72 70 72 74 71 73 71 71 71 69 69 68 67 66 64 64 65 65 64
75 73 71 71 71 73 72 73 72 72 71 72 71 69 68 67 67 64 62 62 64 64
71 71 70 71 71 72 74 73 72 72 72 71 69 69 69 68 68 67 64 62 61 63
73 70 71 71 73 72 75 74 73 70 74 72 70 69 69 68 67 65 64 64 62 63
73 72 72 71 72 75 73 72 71 71 73 72 70 69 66 68 66 64 64 64 64 62
72 72 71 72 72 73 74 72 71 72 74 70 70 52 53 60 66 66 65 61 62 61
78 74 72 73 72 71 70 70 69 70 71 67 64 50 47 51 67 66 63 64 65 64
79 78 73 71 69 69 69 69 68 69 70 67 62 48 47 49 67 66 66 67 66 64
78 76 76 72 69 68 67 66 67 69 70 66 63 49 48 56 67 66 66 67 66 66
76 74 72 72 70 69 69 69 69 67 67 60 64 49 47 56 66 64 64 65 61 53
76 72 72 72 70 70 68 69 68 67 67 67 65 58 49 50 66 65 65 64 62 58

GFSNIL_sfc_temp_030.txt.gz
Temp
63 63 61 61 60 60 60 61 62 62 62 63 64 64 63 61 61 60 60 59 58 58
62 62 61 61 61 60 61 62 63 63 63 64 65 64 63 61 61 60 60 60 60 59
63 63 62 62 61 61 61 63 63 63 63 63 63 64 63 62 62 61 59 60 61 61
63 63 62 62 61 62 61 62 63 63 64 63 63 63 61 62 63 61 61 59 59 60
62 62 61 62 62 62 62 62 64 64 64 64 63 62 62 62 62 61 61 59 59 59
61 61 61 61 62 62 63 63 64 64 63 63 63 66 66 64 62 61 61 61 59 59
61 61 61 62 62 65 65 68 66 63 64 64 63 64 65 64 61 61 61 61 61 60
62 62 62 62 65 65 68 67 67 63 62 61 61 60 58 63 61 59 58 60 62 61
64 63 62 61 66 66 66 66 66 61 61 59 60 47 50 58 60 59 60 60 60 60
65 64 63 63 62 64 63 63 61 59 58 56 55 45 49 53 59 60 61 61 60 60
70 65 63 62 61 60 60 62 59 58 57 55 55 46 48 51 59 60 60 61 61 60
68 64 64 62 60 60 60 59 58 58 56 56 56 46 48 56 59 60 60 61 61 61
68 65 63 62 61 60 62 61 60 58 58 54 56 46 48 56 60 60 60 60 59 51
66 66 62 61 61 61 61 60 59 58 57 56 56 53 47 51 60 60 60 60 59 56

GFSNIL_sfc_temp_033.txt.gz
Temp
61 60 60 60 60 60 59 60 61 61 60 61 62 61 61 60 60 60 59 58 57 56
61 61 60 60 60 59 60 61 61 61 61 62 62 62 61 61 62 61 60 59 58 58
61 61 60 60 60 60 59 61 61 61 61 62 62 62 61 61 62 60 58 59 60 58
61 61 60 60 60 60 60 61 61 62 62 62 62 62 61 61 62 61 60 58 58 58
60 60 60 60 60 60 60 61 62 62 63 63 62 61 61 61 62 61 60 58 58 58
60 60 60 60 60 60 60 61 62 62 62 62 62 63 64 62 62 61 60 60 58 60
59 60 60 60 59 60 62 62 64 62 62 62 61 62 62 62 61 60 60 61 60 60
60 60 60 60 61 62 64 66 65 62 61 60 60 57 57 62 59 59 59 60 61 60
64 61 60 60 63 63 65 65 64 60 60 58 58 48 51 57 58 61 60 59 59 59
62 62 61 61 61 64 61 62 61 58 58 56 54 45 48 52 59 61 60 60 59 58
63 62 61 60 60 58 59 61 57 56 56 55 53 46 47 51 61 60 60 60 60 59
64 61 60 60 58 58 58 57 56 56 55 55 56 46 47 55 60 60 60 60 60 60
64 63 61 60 58 59 58 58 58 56 56 53 56 45 46 55 61 59 59 59 58 50
63 62 61 59 59 59 59 59 57 56 55 55 54 53 46 50 60 60 59 58 57 54